CW5619 Weather Reports


Display with metric or nautical units.
time (UTC)temp
F
wind
direction
speed
MPH
gust
MPH
rain 1hr
in
rain 24hr
in
rain mn
in
humidity
%
barometer
mb
20260505055904 61 187 0.0 0.0 0.02 0.08 0.08 82 1014.5
20260505055404 61 187 0.0 3.0 0.02 0.08 0.08 81 1014.4
20260505054404 61 193 1.0 3.0 0.01 0.07 0.07 81 1014.2
20260505053904 60 219 1.0 2.0 0.01 0.07 0.07 81 1014.3
20260505053403 60 107 0.0 3.0 0.01 0.07 0.07 82 1014.2
20260505052904 60 73 1.0 3.0 0.00 0.06 0.06 81 1014.1
20260505052404 60 117 1.0 3.0 0.00 0.06 0.06 81 1014.2
20260505051904 60 93 1.0 3.0 0.01 0.06 0.06 83 1014.2
20260505051404 60 97 1.0 3.0 0.01 0.06 0.06 83 1014.1
20260505050903 59 101 0.0 2.0 0.01 0.06 0.06 84 1014.0
20260505040905 59 115 0.0 2.0 0.03 0.05 0.05 76 1014.3
20260505040403 60 187 0.0 2.0 0.02 0.04 0.04 72 1014.5
20260505035404 61 203 1.0 6.0 0.01 0.03 0.03 67 1014.6
20260505034903 62 158 2.0 6.0 0.00 0.02 0.02 62 1014.4
20260505034403 63 214 2.0 5.0 0.00 0.02 0.02 60 1014.3
20260505032904 63 230 1.0 3.0 0.00 0.02 0.02 59 1013.8
20260505032403 63 249 1.0 3.0 0.00 0.02 0.02 59 1013.5
20260505031904 63 161 1.0 7.0 0.00 0.02 0.02 58 1013.4
20260505031404 63 128 1.0 12.0 0.00 0.02 0.02 57 1013.0
20260505030905 64 104 5.0 13.0 0.00 0.02 0.02 55 1012.6
20260505025904 63 110 5.0 10.0 0.00 0.02 0.02 55 1012.8
20260505025403 63 120 4.0 10.0 0.01 0.02 0.02 55 1013.3
20260505024904 63 142 4.0 12.0 0.01 0.02 0.02 55 1013.4
20260505024404 63 105 3.0 12.0 0.01 0.02 0.02 56 1013.2
20260505023903 63 105 3.0 13.0 0.02 0.02 0.02 58 1013.1
20260505023404 63 110 5.0 13.0 0.02 0.02 0.02 60 1013.1
20260505022904 63 115 4.0 12.0 0.02 0.02 0.02 62 1012.9
20260505022404 62 114 4.0 12.0 0.02 0.02 0.02 64 1013.2
20260505021904 62 111 3.0 10.0 0.02 0.02 0.02 66 1013.4
20260505021404 63 102 1.0 6.0 0.02 0.02 0.02 66 1013.3
20260505020905 63 160 1.0 5.0 0.02 0.02 0.02 63 1013.5
20260505015403 64 117 1.0 3.0 0.01 0.01 0.01 59 1014.0
20260505014903 65 308 1.0 2.0 0.01 0.01 0.01 56 1014.0
20260505014405 65 282 0.0 2.0 0.01 0.01 0.01 53 1014.0
20260505013903 66 265 1.0 2.0 0.00 0.00 0.00 53 1014.0
20260505013404 67 244 0.0 1.0 0.00 0.00 0.00 53 1013.9
20260505012903 67 244 0.0 3.0 0.00 0.00 0.00 49 1014.0
20260505011404 67 192 1.0 3.0 0.00 0.00 0.00 44 1013.5
20260505010903 67 198 1.0 5.0 0.00 0.00 0.00 45 1013.5
20260505005904 67 142 2.0 6.0 0.00 0.00 0.00 45 1013.3
20260505005404 67 179 3.0 6.0 0.00 0.00 0.00 45 1013.4
20260505004903 68 188 3.0 6.0 0.00 0.00 0.00 45 1013.6
20260505004404 69 189 3.0 7.0 0.00 0.00 0.00 42 1013.6
20260505003403 70 199 3.0 9.0 0.00 0.00 0.00 38 1013.3
20260505002903 70 197 2.0 8.0 0.00 0.00 0.00 38 1013.2
20260505002403 71 220 2.0 8.0 0.00 0.00 0.00 38 1013.4
20260505001904 71 193 3.0 8.0 0.00 0.00 0.00 37 1013.3
20260505001403 71 183 4.0 8.0 0.00 0.00 0.00 36 1013.2
20260505000904 72 209 2.0 12.0 0.00 0.00 0.00 36 1013.1
20260505000405 72 201 2.0 12.0 0.00 0.00 0.00 36 1013.0
20260504235904 72 197 3.0 12.0 0.00 0.00 0.00 36 1013.0
20260504235404 72 205 2.0 5.0 0.00 0.00 0.00 36 1012.8
20260504234904 72 186 1.0 3.0 0.00 0.00 0.00 37 1012.5
20260504234403 73 215 1.0 3.0 0.00 0.00 0.00 37 1012.6
20260504233903 73 151 1.0 3.0 0.00 0.00 0.00 35 1012.5
20260504233404 73 65 2.0 9.0 0.00 0.00 0.00 39 1012.5
20260504232904 73 266 2.0 9.0 0.00 0.00 0.00 38 1012.8
20260504232404 73 22 2.0 9.0 0.00 0.00 0.00 39 1012.9
20260504231903 74 60 2.0 6.0 0.00 0.00 0.00 37 1013.1
20260504231404 75 346 1.0 12.0 0.00 0.00 0.00 34 1013.3
20260504230403 76 185 5.0 12.0 0.00 0.00 0.00 31 1013.3
20260504225903 78 235 6.0 13.0 0.00 0.00 0.00 25 1013.3
20260504225404 78 231 3.0 13.0 0.00 0.00 0.00 24 1013.1
20260504224904 79 233 5.0 12.0 0.00 0.00 0.00 22 1012.8
20260504224404 79 227 5.0 12.0 0.00 0.00 0.00 21 1012.7
20260504223903 79 232 5.0 10.0 0.00 0.00 0.00 20 1012.7
20260504223404 80 197 3.0 10.0 0.00 0.00 0.00 20 1012.6
20260504222903 80 259 3.0 12.0 0.00 0.00 0.00 20 1012.7
20260504222405 80 248 5.0 12.0 0.00 0.00 0.00 19 1012.6
20260504221904 81 229 3.0 9.0 0.00 0.00 0.00 19 1012.7
20260504221405 81 250 2.0 8.0 0.00 0.00 0.00 20 1012.6
20260504220903 81 224 3.0 8.0 0.00 0.00 0.00 19 1012.6
20260504220403 81 224 3.0 9.0 0.00 0.00 0.00 19 1012.6
20260504215904 81 247 3.0 9.0 0.00 0.00 0.00 19 1012.9
20260504215403 81 227 3.0 8.0 0.00 0.00 0.00 19 1013.0
20260504214904 82 231 3.0 9.0 0.00 0.00 0.00 18 1013.0
20260504214404 82 236 3.0 10.0 0.00 0.00 0.00 18 1012.8
20260504213903 82 222 3.0 10.0 0.00 0.00 0.00 18 1012.8
20260504213404 82 207 4.0 13.0 0.00 0.00 0.00 17 1012.7
20260504212903 82 205 3.0 13.0 0.00 0.00 0.00 17 1012.6
20260504212404 83 204 2.0 10.0 0.00 0.00 0.00 17 1012.6
20260504211404 83 240 3.0 9.0 0.00 0.00 0.00 18 1012.6
20260504210403 82 266 2.0 7.0 0.00 0.00 0.00 18 1012.5
20260504205903 82 218 3.0 8.0 0.00 0.00 0.00 18 1012.7
20260504205405 82 217 2.0 10.0 0.00 0.00 0.00 18 1012.8
20260504204403 83 207 2.0 6.0 0.00 0.00 0.00 18 1012.6
20260504203903 83 232 2.0 5.0 0.00 0.00 0.00 21 1012.7
20260504203403 82 90 1.0 7.0 0.00 0.00 0.00 21 1012.5
20260504202903 82 189 2.0 12.0 0.00 0.00 0.00 21 1012.5
20260504202405 83 241 6.0 12.0 0.00 0.00 0.00 20 1012.7
20260504201903 83 217 1.0 9.0 0.00 0.00 0.00 21 1012.4
20260504201404 82 271 2.0 9.0 0.00 0.00 0.00 21 1012.5
20260504200903 83 255 1.0 3.0 0.00 0.00 0.00 20 1012.6
20260504200404 82 315 1.0 6.0 0.00 0.00 0.00 19 1012.5
20260504195904 82 248 2.0 10.0 0.00 0.00 0.00 19 1012.5
20260504195404 82 254 2.0 10.0 0.00 0.00 0.00 19 1012.7
20260504194903 82 231 5.0 10.0 0.00 0.00 0.00 18 1012.8
20260504194403 81 240 3.0 9.0 0.00 0.00 0.00 18 1012.7
20260504193903 81 209 2.0 6.0 0.00 0.00 0.00 19 1012.6
20260504193404 81 205 2.0 7.0 0.00 0.00 0.00 19 1012.6
20260504192904 81 178 2.0 8.0 0.00 0.00 0.00 19 1012.5
20260504192405 81 197 2.0 8.0 0.00 0.00 0.00 19 1012.4
20260504191903 80 109 1.0 9.0 0.00 0.00 0.00 20 1012.4
20260504191403 81 113 2.0 9.0 0.00 0.00 0.00 20 1012.5
20260504190904 81 192 2.0 9.0 0.00 0.00 0.00 20 1012.5
20260504190403 81 197 3.0 9.0 0.00 0.00 0.00 20 1012.5
20260504184904 81 228 2.0 8.0 0.00 0.00 0.00 20 1012.6
20260504184404 81 245 3.0 12.0 0.00 0.00 0.00 20 1012.8
20260504183904 81 219 5.0 12.0 0.00 0.00 0.00 20 1012.9
20260504183404 82 216 4.0 7.0 0.00 0.00 0.00 20 1013.0
20260504182904 81 229 3.0 7.0 0.00 0.00 0.00 20 1013.1
20260504182403 81 164 2.0 7.0 0.00 0.00 0.00 21 1013.3
20260504181904 80 207 3.0 7.0 0.00 0.00 0.00 21 1013.4
20260504181404 80 188 2.0 8.0 0.00 0.00 0.00 22 1013.4
20260504180904 79 197 3.0 8.0 0.00 0.00 0.00 22 1013.3
20260504180404 80 205 4.0 8.0 0.00 0.00 0.00 22 1013.4
20260504175904 80 213 3.0 9.0 0.00 0.00 0.00 21 1013.4
20260504175405 80 226 3.0 9.0 0.00 0.00 0.00 21 1013.4
20260504174404 80 219 3.0 10.0 0.00 0.00 0.00 21 1013.2
20260504173404 80 240 5.0 12.0 0.00 0.00 0.00 23 1013.3
20260504172903 80 227 6.0 10.0 0.00 0.00 0.00 23 1013.4
20260504172403 80 213 4.0 10.0 0.00 0.00 0.00 23 1013.4
20260504171904 80 196 2.0 9.0 0.00 0.00 0.00 23 1013.4
20260504171405 80 236 5.0 9.0 0.00 0.00 0.00 22 1013.4
20260504170903 79 145 3.0 6.0 0.00 0.00 0.00 25 1013.4
20260504170404 80 168 2.0 8.0 0.00 0.00 0.00 25 1013.4
20260504150404 75 117 3.0 9.0 0.00 0.00 0.00 31 1013.3
20260504140903 72 166 1.0 6.0 0.00 0.00 0.00 33 1013.2
20260504130404 70 117 2.0 3.0 0.00 0.00 0.00 34 1012.4
20260504110404 71 101 0.0 2.0 0.00 0.00 0.00 34 1011.7
20260504100404 72 195 1.0 3.0 0.00 0.00 0.00 33 1011.9
20260504081904 71 104 0.0 2.0 0.00 0.00 0.00 31 1011.6
20260504081404 72 121 0.0 2.0 0.00 0.00 0.00 30 1011.6
20260504080904 72 129 0.0 2.0 0.00 0.00 0.00 31 1011.7
20260504080404 72 164 0.0 2.0 0.00 0.00 0.00 32 1011.6
20260504070404 75 216 1.0 3.0 0.00 0.00 0.00 28 1011.9